{"data":{"norad_id":40044,"epoch":"2026-05-24T23:35:27.274848Z","epoch_age_seconds":83316,"freshness":"FRESH","line1":"1 40044U 14033AL  26144.98295457  .00001966  00000+0  23127-3 0  9998","line2":"2 40044  97.7850 295.3097 0049165 152.8989 207.4808 14.85126588642023","mean_motion":14.85126588,"eccentricity":0.0049165,"inclination_deg":97.785,"raan_deg":295.3097,"arg_perigee_deg":152.8989,"mean_anomaly_deg":207.4808,"bstar":0.00023127,"rev_number":64202,"period_min":96.961431546332,"perigee_km":578.81570363237,"apogee_km":647.56140782183,"semimajor_km":6991.3255557271,"source":"CELESTRAK","updated_at":"2026-05-25T13:38:13.527944Z"}}